Regional Weather Roundup
Issued by NWS Bismarck, ND

Current Version | Previous Version | Text Only | Print | Product List | Glossary On
Versions: 1 2 3 4 5 6 7 8 9 10 11 12 13 14 15 16 17 18 19 20 21 22 23 24 25 26 27 28 29 30 31 32 33 34 35 36 37 38 39 40 41 42 43 44 45 46 47 48 49 50
000
ASUS43 KBIS 290710
RWRBIS

NWR BROADCAST TEXT
NATIONAL WEATHER SERVICE BISMARCK ND
200 AM CDT WED JUN 29 2022

NOTE: "FAIR" INDICATES FEW OR NO CLOUDS BELOW 12,000 FEET WITH NO
SIGNIFICANT WEATHER AND/OR OBSTRUCTIONS TO VISIBILITY.


CITY           SKY/WX    TMP DP  RH WIND       PRES   REMARKS
WILLISTON      LGT RAIN  63  58  83 S23G32    30.01S
MINOT          MOCLDY    60  50  69 E9        30.01S
MINOT AFB      PTCLDY    58  42  54 S10       29.99S
BISMARCK       MOCLDY    62  53  72 E9G21     30.01F
DICKINSON      CLOUDY    64  54  69 SE15      29.91F
GARRISON         N/A     60  53  77 E15G21    29.98F
HETTINGER ARPT CLOUDY    64  53  67 E13       29.95F
JAMESTOWN      PTCLDY    58  48  69 SE8       30.07F
CARRINGTON     MOCLDY    57  50  77 SE13      30.09F
OAKES          MOCLDY    57  48  72 E16       30.07F
TIOGA          FAIR      61  61 100 SE9       30.01R
WATFORD CITY   TSTM      63  63 100 N16G23    30.03R
$$

CITY           SKY/WX    TMP DP  RH WIND       PRES   REMARKS
GRAND FORKS    CLEAR     54  48  80 SE3       30.10F
GRAND FORKS AF CLEAR     50  49  95 CALM      30.10F
DEVILS LAKE    PTCLDY    59  52  77 SE13      30.07F
FARGO          CLEAR     55  48  77 E6        30.11F
CANDO          FAIR      54  54 100 SE9       30.08F
CAVALIER       FAIR      52  52 100 CALM      30.09F
GWINNER        PTCLDY    57  57 100 E8        30.10F
ROLLA          FAIR      54  52  94 SE6       30.07F
$$

CITY           SKY/WX    TMP DP  RH WIND       PRES   REMARKS
ABERDEEN       CLEAR     62  54  74 E9        30.05F
MOBRIDGE       PTCLDY    65  55  70 SE13      29.97F
BUFFALO          N/A     67  51  56 SE12      29.89F
RAPID CITY     MOCLDY    73  45  36 S7        30.00F
GLASGOW        MOCLDY    66  58  75 SE14      29.81S
SIDNEY         CLOUDY    63  59  87 NE16      29.96F
WOLF POINT     MOCLDY    66  60  81 E9        29.84F
GLENDIVE       MOCLDY    70  55  59 NE16G25   29.92F
MILES CITY     CLOUDY    80  46  30 NE5       29.84F
BAKER          MOCLDY    63  53  70 SE7       29.93S
$$

CITY           SKY/WX    TMP DP  RH WIND       PRES   REMARKS
BILLINGS       MOCLDY    69  52  54 CALM      29.94F THUNDER
GREAT FALLS    CLEAR     60  45  57 E7        29.93R
REGINA         MOCLDY    61  52  72 SE16G22   29.95F
ESTEVAN        CLOUDY    59  54  82 E15G23    29.96F
$$




USA.gov is the U.S. government's official web portal to all federal, state and local government web resources and services.